Hourly Data Report for October 02, 2017

All times are specified in Local Standard Time (LST). Add 1 hour to adjust for Daylight Saving Time where and when it is observed.

KUGAARUK CLIMATE
NUNAVUT

68°32'15.060" N
89°47'47.020" W
15.80 m
2303094
71407
NBB

Download Data

Hourly Data (October 2017)
Hourly Data Report for October 2, 2017
Temp Definition
°C
Dew Point Temp Definition
°C
Rel Hum Definition
%
Wind Dir Definition
10's deg

Wind Spd Definition
km/h
Visibility Definition
km
Stn Press Definition
kPa
Hmdx Definition


Wind Chill Definition


Weather Definition


TIME
00:00 -0.1 -1.3 92 20 29   100.51   -6 LegendNANA
01:00 0.3 -0.9 92 21 26   100.41     LegendNANA
02:00 0.6 -0.5 92 22 22   100.33     LegendNANA
03:00 0.5 -0.5 93 23 15   100.29     LegendNANA
04:00 0.2 -0.7 94 24 14   100.27     LegendNANA
05:00 -0.2 -1.0 94 28 15   100.25   -5 LegendNANA
06:00 -1.1 -1.9 94 29 11   100.25   -5 LegendNANA
07:00 -1.8 -2.9 92 30 8   100.23   -5 LegendNANA
08:00 -2.0 -3.1 92 29 19   100.22   -8 LegendNANA
09:00 -1.6 -3.6 87 29 16   100.19   -7 LegendNANA
10:00 -1.5 -4.0 83 29 18   100.17   -7 LegendNANA
11:00 -1.5 -4.1 82 29 22   100.13   -7 LegendNANA
12:00 -1.9 -4.4 84 28 26   100.10   -8 LegendNANA
13:00 -2.1 -4.4 84 27 23   100.05   -8 LegendNANA
14:00 -2.4 -4.0 88 27 23   99.96   -9 LegendNANA
15:00 -2.4 -4.0 89 28 14   99.90   -7 LegendNANA
16:00 -2.4 -4.0 89 28 11   99.86   -6 LegendNANA
17:00 -2.5 -3.7 91 28 12   99.80   -7 LegendNANA
18:00 -2.7 -3.8 92 29 14   99.73   -8 LegendNANA
19:00 -2.8 -4.6 88 31 15   99.68   -8 LegendNANA
20:00 -3.1 -5.0 87 29 13   99.63   -8 LegendNANA
21:00 -3.2 -5.0 87 30 18   99.59   -9 LegendNANA
22:00 -3.2 -4.9 88 30 14   99.56   -8 LegendNANA
23:00 -3.1 -5.1 86 30 18   99.51   -9 LegendNANA

Notes on Data Quality.

Legend

  • E = Estimated
  • M = Missing
  • NA = Not Available
  • ‡ = Partner data that is not subject to review by the National Climate Archives
Date modified: